Regional Weather Roundup
Issued by NWS

Home | Current Version | Previous Version | Graphics & Text | Print | Product List | Glossary On
Versions: 1 2 3 4 5 6 7 8 9 10 11 12 13 14 15 16 17 18 19 20 21 22 23 24 25 26 27 28 29 30 31 32 33 34 35 36 37 38 39 40 41 42 43 44 45 46 47 48 49 50
000
ASUS45 KPSR 291210
RWRAZ

ARIZONA REGIONAL HOURLY WEATHER ROUNDUP
NATIONAL WEATHER SERVICE PHOENIX AZ
500 AM MST SUN MAR 29 2015

NOTE: FAIR INDICATES FEW OR NO CLOUDS BELOW 12,000 FEET WITH NO
SIGNIFICANT WEATHER AND/OR OBSTRUCTIONS TO VISIBILITY.

AZZ001>003-036-291300-
NORTHWEST ARIZONA

CITY           SKY/WX    TMP DP  RH WIND       PRES   REMARKS
BULLHEAD CITY  CLEAR     64  25  22 CALM      29.98S
KINGMAN        CLEAR     52  22  30 S3        30.10S
6HR MIN TEMP:  47; 6HR MAX TEMP:  66;

$$

AZZ004>008-015-016-018-291300-
NORTH CENTRAL ARIZONA

CITY           SKY/WX    TMP DP  RH WIND       PRES   REMARKS
GRAND CANYON   PTCLDY    27  19  72 E3        30.29S
6HR MIN TEMP:  27; 6HR MAX TEMP:  35;

WILLIAMS       CLEAR     34  21  60 S9        30.35S WCI  26
PRESCOTT       CLEAR     43  25  49 S7        30.20F
6HR MIN TEMP:  42; 6HR MAX TEMP:  52;

FLAGSTAFF      CLEAR     35  21  56 NW3       30.29S
6HR MIN TEMP:  34; 6HR MAX TEMP:  47;

PAYSON         CLEAR     50  21  32 CALM      30.23S
PAGE           CLEAR     55  23  28 SW5       30.16R
6HR MIN TEMP:  54; 6HR MAX TEMP:  68;

$$

AZZ009>014-017-291300-
NORTHEAST ARIZONA

CITY           SKY/WX    TMP DP  RH WIND       PRES   REMARKS
WINSLOW        CLEAR     41  20  43 S10       30.21S
6HR MIN TEMP:  40; 6HR MAX TEMP:  60;

SAINT JOHNS    CLEAR     48   9  20 CALM      30.25R
6HR MIN TEMP:  45; 6HR MAX TEMP:  56;

WINDOW ROCK    CLEAR     34  16  47 CALM      30.28R
6HR MIN TEMP:  31; 6HR MAX TEMP:  51;

SHOW LOW       CLEAR     36   9  32 CALM      30.31S
$$

AZZ023-291300-
GREATER PHOENIX AREA

CITY           SKY/WX    TMP DP  RH WIND       PRES   REMARKS
PHOENIX        PTCLDY    67  30  25 E5        29.98R
6HR MIN TEMP:  66; 6HR MAX TEMP:  77;

BUCKEYE        PTCLDY    55  34  44 CALM      29.99S
DEER VALLEY    CLEAR     65  28  24 VRB3      29.99S
6HR MIN TEMP:  65; 6HR MAX TEMP:  73;

SCOTTSDALE     CLEAR     62  38  40 CALM      30.01R
6HR MIN TEMP:  61; 6HR MAX TEMP:  73;

MESA-GATEWAY   CLEAR     59  23  25 E8        30.02S
$$

AZZ027-028-291300-
SOUTHWEST MARICOPA COUNTY AND PINAL COUNTY

CITY           SKY/WX    TMP DP  RH WIND       PRES   REMARKS
CASA GRANDE    PTCLDY    57  27  30 CALM      30.00R
6HR MIN TEMP:  57; 6HR MAX TEMP:  68;

GILA BEND      FAIR      63  20  19 E2        29.96S
6HR MIN TEMP:  63; 6HR MAX TEMP:  74;

$$

AZZ503-504-507>509-291300-
SOUTHEAST ARIZONA

CITY           SKY/WX    TMP DP  RH WIND       PRES   REMARKS
TUCSON         PTCLDY    61  25  25 SE10      30.09S
6HR MIN TEMP:  60; 6HR MAX TEMP:  67;

NOGALES        MOCLDY    50  26  39 CALM      30.15S
6HR MIN TEMP:  50; 6HR MAX TEMP:  60;

SIERRA VISTA   PTCLDY    60  19  20 W8        30.20R
6HR MIN TEMP:  56; 6HR MAX TEMP:  65;

DOUGLAS        CLEAR     48  24  39 NE6       30.18R
6HR MIN TEMP:  44; 6HR MAX TEMP:  54;

SAFFORD        CLEAR     48  17  29 CALM      30.10S
6HR MIN TEMP:  48; 6HR MAX TEMP:  66;

$$

AZZ020-021-025-026-031-291300-
SOUTHWEST ARIZONA

CITY           SKY/WX    TMP DP  RH WIND       PRES   REMARKS
YUMA           MOCLDY    68  41  37 CALM      29.92S
6HR MIN TEMP:  68; 6HR MAX TEMP:  78;

$$

CAZ031-033-041-043-047-048-061-291300-
SOUTHERN CALIFORNIA

CITY           SKY/WX    TMP DP  RH WIND       PRES   REMARKS
DOWNTOWN L.A.  FOG       57  56  96 CALM      30.03R VSB 1/4
6HR MIN TEMP:  56; 6HR MAX TEMP:  62;

L.A. AIRPORT   FOG       56  56 100 W7        30.04S VSB 1/4
6HR MIN TEMP:  56; 6HR MAX TEMP:  59;

SAN DIEGO      CLOUDY    62  57  83 W3        30.04S
6HR MIN TEMP:  62; 6HR MAX TEMP:  65;

BURBANK        CLEAR     58  40  51 CALM      30.02S
6HR MIN TEMP:  57; 6HR MAX TEMP:  68;

ONTARIO        MOCLDY    57  40  52 CALM      30.02S
6HR MIN TEMP:  56; 6HR MAX TEMP:  68;

RIVERSIDE      CLEAR     58  42  55 SE3       30.03R
6HR MIN TEMP:  58; 6HR MAX TEMP:  69;

PALM SPRINGS   PTCLDY    70  39  32 CALM      29.95R
6HR MIN TEMP:  68; 6HR MAX TEMP:  85;

EL CENTRO NAS  PTCLDY    66  26  22 W8        29.90S
6HR MIN TEMP:  65; 6HR MAX TEMP:  77;

IMPERIAL       PTCLDY    66  29  24 CALM      29.89F
6HR MIN TEMP:  66; 6HR MAX TEMP:  77;

BLYTHE         PTCLDY    65  31  28 N7        29.93S
6HR MIN TEMP:  64; 6HR MAX TEMP:  81;

NEEDLES        CLEAR     64  24  21 NW5       29.97R
6HR MIN TEMP:  63; 6HR MAX TEMP:  78;

$$

NVZ020-UTZ003-291300-
SOUTHERN NEVADA-UTAH

CITY           SKY/WX    TMP DP  RH WIND       PRES   REMARKS
LAS VEGAS      CLEAR     65  21  18 SW6       30.00R
6HR MIN TEMP:  63; 6HR MAX TEMP:  74;

SALT LAKE CITY CLEAR     40  27  59 CALM      30.29R
6HR MIN TEMP:  39; 6HR MAX TEMP:  50;

$$

NMZ009-TXZ055-291300-
NEW MEXICO-WEST TEXAS

CITY           SKY/WX    TMP DP  RH WIND       PRES   REMARKS
ALBUQUERQUE    CLEAR     46  14  27 SE7       30.20R
6HR MIN TEMP:  46; 6HR MAX TEMP:  64;

EL PASO        CLEAR     59  12  15 CALM      30.12R
6HR MIN TEMP:  58; 6HR MAX TEMP:  78;

$$


........................KEY........................
SKY/WX - SKY CONDITION/WEATHER
TMP    - TEMPERATURE IN FAHRENHEIT
DP     - DEW POINT IN FAHRENHEIT
RH     - RELATIVE HUMIDITY IN PERCENT
WIND   - DIRECTION AND SPEED IN MILES PER HOUR (MPH)
VRB    - VARIABLE WIND DIRECTION
PRES   - MEAN SEA LEVEL PRESSURE IN INCHES OF MERCURY
         F - FALLING PRESSURE   R - RISING PRESSURE
         S - STEADY PRESSURE
VSB    - VISIBILITY IN MILES
HX     - HEAT INDEX IN FAHRENHEIT
WCI    - WIND CHILL INDEX IN FAHRENHEIT
TC     - TEMPERATURE IN CELSIUS WHICH IS ALSO KNOWN AS
         TEMPERATURE IN CENTIGRADE
AFB    - AIR FORCE BASE
         LUKE AFB IS LUKE AIR FORCE BASE
         DAVIS-MONTHAN IS DAVIS-MONTHAN AIR FORCE BASE
NAS    - NAVAL AIR STATION
         EL CENTRO NAS IS EL CENTRO NAVAL AIR STATION
N/A    - NOT AVAILABLE



USA.gov is the U.S. government's official web portal to all federal, state and local government web resources and services.